#timestamp,LO_Frequency,Hit 
1504789215.1,286047002.2,N
1504789235.8,286047001.9,N
1504789255.7,286047001.4,N
1504789275.5,286047000.1,N
1504789295.3,286046999.8,N
1504789315.2,286047002.0,N
1504789335.9,286047004.3,N
1504789355.7,286047001.4,N
1504789375.5,286047000.4,N
1504789395.4,286047000.8,N
1504789415.2,286046998.4,N
1504789435.0,286046999.9,N
1504789435.9,286046999.9,N
1504789455.8,286047000.8,N
1504789475.6,286047002.8,N
1504789495.4,286047002.3,N
1504789515.3,286047002.8,N
1504789535.1,286047002.6,N
1504789536.0,286047002.6,N
1504789555.8,286046999.9,N
1504789575.7,286047002.8,N
1504789595.5,286047000.8,N
1504789615.3,286046999.8,N
1504789635.2,286047000.2,N
1504789655.9,286047000.4,N
1504789675.7,286046999.9,N
1504789695.5,286046998.5,N
1504789715.4,286047000.5,N
1504789735.2,286047001.3,N
1504789755.0,286047001.6,N
1504789755.9,286047001.6,N
1504789775.8,286047002.4,N
1504789795.6,286047001.0,N
1504789815.4,286047000.6,N
1504789835.3,286046998.5,N
1504789855.1,286046998.1,N
1504789875.8,286047001.8,N
1504789895.7,286047001.7,N
1504789915.5,286047002.1,N
1504789935.3,286047002.4,N
1504789955.2,286047001.9,N
1504789975.9,286047002.0,N
1504789995.7,286047002.0,N
1504790015.6,286047002.3,N
1504790035.4,286047003.9,N
1504790055.2,286046999.8,N
1504790075.1,286047004.3,P
1504790076.0,286047004.3,N
1504790095.8,286047000.2,N
1504790115.6,286047002.7,N
1504790135.5,286047000.6,N
1504790155.3,286047001.2,N
1504790175.1,286046998.2,N
1504790195.8,286046998.3,N
1504790215.7,286046998.6,N
1504790235.5,286046996.6,N
1504790255.3,286047001.2,N
1504790275.2,286047000.7,N
1504790295.9,286046999.8,N
1504790315.7,286047001.9,N
1504790335.6,286047002.3,N
1504790355.4,286047001.5,N
1504790375.2,286047004.4,N
1504790395.1,286047002.7,N
1504790396.0,286047002.7,N
1504790415.8,286047002.7,N
1504790435.6,286047002.6,N
1504790455.4,286047002.0,N
1504790475.3,286047002.7,N
1504790495.1,286047001.5,N
1504790515.8,286047002.3,N
1504790535.7,286046999.8,N
1504790555.5,286047000.9,N
1504790575.3,286047000.2,N
1504790595.2,286046999.8,N
1504790615.9,286047001.2,N
1504790635.7,286047001.4,N
1504790655.6,286047001.3,N
1504790675.4,286047004.4,N
1504790695.2,286047001.0,N
1504790715.1,286046998.5,N
1504790716.0,286046998.5,N
1504790735.8,286046998.8,N
1504790755.6,286047000.3,N
1504790775.4,286047001.4,N
1504790795.3,286047002.0,N
1504790815.1,286046999.7,N
1504790835.8,286046999.9,N
1504790855.7,286046999.4,N
1504790875.5,286046997.0,N
1504790895.3,286046995.8,N
1504790915.2,286046994.3,N
1504790935.9,286046991.7,P
1504790955.7,286046997.0,N
1504790975.6,286046998.8,N
1504790995.4,286047000.8,N
1504791015.2,286046999.7,N
1504791035.1,286047001.9,N
1504791036.0,286047001.9,N
1504791055.8,286047000.8,N
1504791075.6,286046996.1,N
1504791095.5,286046995.4,N
1504791115.3,286046996.9,N
1504791135.1,286046998.3,N
1504791155.9,286047001.1,N
1504791175.7,286046998.3,N
1504791195.5,286046995.4,N
1504791215.4,286046990.3,P
1504791235.2,286046994.3,N
1504791255.0,286046998.0,N
1504791255.9,286046998.0,N
1504791275.8,286046996.4,N
1504791295.6,286046996.2,N
1504791315.4,286046995.2,N
1504791335.2,286046997.1,N
1504791355.1,286046996.5,N
1504791356.0,286046996.5,N
1504791375.8,286046998.4,N
1504791395.6,286046998.2,N
1504791415.5,286047001.2,N
1504791435.3,286046999.3,N
1504791455.1,286047000.9,N
1504791475.9,286046998.9,N
1504791495.7,286046998.3,N
1504791515.5,286046997.2,N
1504791535.4,286046993.9,N
1504791555.2,286046991.0,P
1504791575.0,286046993.6,N
1504791575.9,286046993.6,N
1504791595.8,286046993.5,N
1504791615.6,286046995.1,N
1504791635.4,286046995.9,N
1504791655.3,286046996.4,N
1504791675.1,286046990.4,P
1504791676.0,286046990.4,P
1504791695.8,286046998.0,N
1504791715.7,286046998.9,N
1504791735.5,286046999.8,N
1504791755.3,286047000.2,N
1504791775.2,286046997.5,N
1504791795.9,286046996.7,N
1504791815.7,286046993.9,N
1504791835.5,286046993.6,N
1504791855.4,286046993.6,N
1504791875.2,286046992.4,N
1504791895.0,286046992.8,N
1504791895.9,286046992.8,N
1504791915.8,286046990.1,P
1504791935.6,286046994.9,N
1504791955.4,286046995.5,N
1504791975.3,286046997.8,N
1504791995.1,286046996.6,N
1504792015.8,286046998.6,N
1504792035.7,286046996.5,N
1504792055.5,286046996.7,N
1504792075.3,286046996.2,N
1504792095.2,286046994.3,N
1504792115.9,286046994.6,N
1504792135.7,286046993.0,P
1504792155.6,286046996.6,N
1504792175.4,286046996.5,N
1504792195.2,286046996.6,N
1504792215.1,286046996.9,N
1504792216.0,286046996.9,N
1504792235.8,286046997.5,N
1504792255.6,286046999.1,N
1504792275.5,286046999.2,N
1504792295.3,286046997.5,N
1504792315.1,286046995.1,P
1504792335.9,286046998.8,N
1504792355.7,286047000.4,N
1504792375.5,286047002.8,N
1504792395.4,286047002.1,N
1504792415.2,286047000.6,N
1504792435.0,286046999.1,N
1504792435.9,286046999.1,N
1504792455.7,286046997.3,N
1504792475.6,286046996.5,N
1504792495.4,286046999.6,N
1504792515.2,286047000.2,N
1504792535.1,286047002.6,N
1504792536.0,286047002.6,N
1504792555.8,286047001.1,N
1504792575.6,286046998.9,N
1504792595.5,286046999.1,N
1504792615.3,286046997.7,N
1504792635.1,286046997.7,N
1504792655.9,286046995.4,N
1504792675.7,286046995.3,N
1504792695.5,286046994.2,N
1504792715.4,286046993.4,N
1504792735.2,286046997.1,N
1504792755.0,286046996.5,N
1504792755.9,286046996.5,N
1504792775.7,286046997.4,N
1504792795.6,286046996.4,N
